Location: B?jaj?g
(11.7167°N, 92.6667°E)
Time: 04:06:14
(UTC+00:00)

MOS 1 Rocket - Pass Details

Date: 18 September 2020
Orbit: 614 x 831 km, 97.4° (Epoch: 20 October)

Event Time Altitude Azimuth Distance (km) Brightness Sun altitude
Rises 12:30:10 0° 16° (NNE) 2,896 6.4 -11.1°
Reaches altitude 10° 12:32:23 10° 19° (NNE) 1,977 5.5 -11.7°
Maximum altitude 12:36:36 63° 100° (E) 684 3.0 -12.7°
Drops below altitude 10° 12:40:49 10° 182° (S) 1,971 5.6 -13.7°
Sets 12:43:01 0° 185° (S) 2,887 6.5 -14.3°
